Time,TemperatureF,DewpointF,PressureIn,WindDirection,WindDirectionDegrees,WindSpeedMPH,WindSpeedGustMPH,Humidity,HourlyPrecipIn,Conditions,Clouds,dailyrainin,SoftwareType,DateUTC
2013-05-20 00:00:00,50.8,39.8,24.17,North,0,0.0,-999.0,66,0.00,,,0.00,,2013-05-20 07:00:00,
2013-05-20 01:00:00,49.1,39.0,24.16,North,0,0.0,-999.0,68,0.00,,,0.00,,2013-05-20 08:00:00,
2013-05-20 02:00:00,47.7,38.4,24.16,North,0,0.0,-999.0,70,0.00,,,0.00,,2013-05-20 09:00:00,
2013-05-20 03:00:00,47.2,38.3,24.16,North,0,0.0,-999.0,71,0.00,,,0.00,,2013-05-20 10:00:00,
2013-05-20 04:00:00,46.4,38.0,24.16,North,0,0.0,-999.0,72,0.00,,,0.00,,2013-05-20 11:00:00,
2013-05-20 05:00:00,45.9,37.7,24.16,North,0,0.0,-999.0,73,0.00,,,0.00,,2013-05-20 12:00:00,
2013-05-20 06:00:00,45.7,37.9,24.16,North,0,0.0,-999.0,74,0.00,,,0.00,,2013-05-20 13:00:00,
2013-05-20 07:05:00,46.1,39.0,24.16,North,0,0.0,-999.0,76,0.00,,,0.00,,2013-05-20 14:05:00,
2013-05-20 08:05:00,49.5,41.1,0.00,North,0,0.0,-999.0,73,0.00,,,0.00,,2013-05-20 15:05:00,
2013-05-20 09:05:00,62.1,39.8,0.00,North,0,0.0,-999.0,44,0.00,,,0.00,,2013-05-20 16:05:00,
2013-05-20 10:05:00,65.9,35.8,0.00,North,0,0.0,-999.0,33,0.00,,,0.00,,2013-05-20 17:05:00,
2013-05-20 11:05:00,66.6,30.3,0.00,North,0,0.0,-999.0,26,0.00,,,0.00,,2013-05-20 18:05:00,
2013-05-20 12:00:00,68.2,30.7,0.00,North,0,0.0,-999.0,25,0.00,,,0.00,,2013-05-20 19:00:00,
2013-05-20 13:05:00,73.1,31.8,0.00,North,0,0.0,-999.0,22,0.00,,,0.00,,2013-05-20 20:05:00,
2013-05-20 14:05:00,70.7,39.3,0.00,North,0,0.0,-999.0,32,0.00,,,0.00,,2013-05-20 21:05:00,
2013-05-20 15:05:00,70.6,40.0,0.00,North,0,0.0,-999.0,33,0.00,,,0.00,,2013-05-20 22:05:00,
2013-05-20 16:05:00,69.1,39.4,0.00,North,0,0.0,-999.0,34,0.00,,,0.00,,2013-05-20 23:05:00,
2013-05-20 17:05:00,68.0,38.4,0.00,North,0,0.0,-999.0,34,0.00,,,0.00,,2013-05-21 00:05:00,
2013-05-20 18:00:00,66.2,36.9,24.16,North,0,0.0,-999.0,34,0.00,,,0.00,,2013-05-21 01:00:00,
2013-05-20 19:00:00,63.7,36.8,24.16,North,0,0.0,-999.0,37,0.00,,,0.00,,2013-05-21 02:00:00,
2013-05-20 20:00:00,60.7,36.2,24.16,North,0,0.0,-999.0,40,0.00,,,0.00,,2013-05-21 03:00:00,
2013-05-20 21:00:00,57.8,35.9,24.17,North,0,0.0,-999.0,44,0.00,,,0.00,,2013-05-21 04:00:00,
2013-05-20 22:00:00,55.4,34.3,24.17,North,0,0.0,-999.0,45,0.00,,,0.00,,2013-05-21 05:00:00,
2013-05-20 23:00:00,54.5,30.0,24.18,North,0,0.0,-999.0,39,0.00,,,0.00,,2013-05-21 06:00:00,